WD6AWP Weather Reports


time (UTC)temp
C
wind
direction
speed
KPH
gust
KPH
rain 1hr
cm
rain 24hr
cm
rain mn
cm
humidity
%
barometer
mb
20260903040003 20 277 0.0 3.2 0.00 0.00 0.00 78 1014.4
20260903034502 21 277 1.6 6.4 0.00 0.00 0.00 79 1014.1
20260903033002 21 277 4.8 12.9 0.00 0.00 0.00 80 1014.0
20260903031600 21 284 4.8 14.5 0.00 0.00 0.00 79 1013.9
20260903030100 21 273 9.7 14.5 0.00 0.00 0.00 79 1013.9
20260903024600 21 269 8.0 16.1 0.00 0.00 0.00 78 1013.9
20260903023059 21 261 12.9 19.3 0.00 0.00 0.00 78 1013.7
20260903021558 22 275 12.9 19.3 0.00 0.00 0.00 77 1013.8
20260903020059 22 257 16.1 24.1 0.00 0.00 0.00 76 1013.8
20260903014557 22 282 16.1 27.4 0.00 0.00 0.00 75 1013.7
20260903013056 22 257 14.5 29.0 0.00 0.00 0.00 76 1013.7
20260903011605 22 260 19.3 33.8 0.00 0.00 0.00 75 1013.7
20260903010052 23 276 22.5 32.2 0.00 0.00 0.00 75 1013.6
20260903004550 24 259 19.3 33.8 0.00 0.00 0.00 76 1013.6
20260903003049 23 260 19.3 32.2 0.00 0.00 0.00 76 1013.5
20260903001548 24 284 17.7 29.0 0.00 0.00 0.00 75 1013.5
20260903000047 25 273 16.1 27.4 0.00 0.00 0.00 73 1013.6
20260902234547 25 219 12.9 27.4 0.00 0.00 0.00 72 1013.7
20260902233054 25 253 8.0 22.5 0.00 0.00 0.00 68 1013.9
20260902231553 25 221 9.7 24.1 0.00 0.00 0.00 64 1014.0
20260902230041 25 259 11.3 24.1 0.00 0.00 0.00 66 1014.0
20260902224547 25 233 9.7 24.1 0.00 0.00 0.00 67 1014.2
20260902223037 26 206 9.7 16.1 0.00 0.00 0.00 71 1014.4
20260902221545 26 209 11.3 19.3 0.00 0.00 0.00 70 1014.5
20260902220033 26 217 11.3 20.9 0.00 0.00 0.00 70 1014.7
20260902214531 25 223 11.3 19.3 0.00 0.00 0.00 70 1014.9
20260902213030 25 281 11.3 24.1 0.00 0.00 0.00 71 1015.1
20260902211534 26 272 9.7 24.1 0.00 0.00 0.00 71 1015.2
20260902210027 26 250 9.7 17.7 0.00 0.00 0.00 71 1015.3
20260902204525 25 235 9.7 16.1 0.00 0.00 0.00 71 1015.4
20260902203025 26 260 8.0 17.7 0.00 0.00 0.00 69 1015.4
20260902201533 25 260 9.7 16.1 0.00 0.00 0.00 70 1015.4
20260902200023 25 269 4.8 17.7 0.00 0.00 0.00 71 1015.6
20260902194523 25 286 9.7 19.3 0.00 0.00 0.00 70 1015.7
20260902193021 25 311 8.0 17.7 0.00 0.00 0.00 70 1015.8
20260902191528 25 280 8.0 17.7 0.00 0.00 0.00 70 1016.0
20260902190018 25 275 9.7 20.9 0.00 0.00 0.00 70 1016.1
20260902184516 25 196 3.2 11.3 0.00 0.00 0.00 70 1016.0
20260902183019 25 214 1.6 12.9 0.00 0.00 0.00 71 1016.2
20260902181512 25 284 4.8 14.5 0.00 0.00 0.00 71 1016.4
20260902180012 25 256 4.8 16.1 0.00 0.00 0.00 71 1016.4
20260902174510 25 248 6.4 12.9 0.00 0.00 0.00 70 1016.4
20260902173008 25 226 3.2 16.1 0.00 0.00 0.00 72 1016.3
20260902171505 24 249 3.2 14.5 0.00 0.00 0.00 71 1016.2
20260902170002 24 236 3.2 9.7 0.00 0.00 0.00 74 1016.1
20260902164559 23 215 1.6 9.7 0.00 0.00 0.00 76 1016.2
20260902163103 23 167 3.2 9.7 0.00 0.00 0.00 75 1016.1
20260902161556 23 282 3.2 11.3 0.00 0.00 0.00 78 1016.0
20260902160056 22 288 0.0 6.4 0.00 0.00 0.00 78 1015.9
20260902154547 22 288 0.0 0.0 0.00 0.00 0.00 79 1016.0
20260902153044 21 288 0.0 0.0 0.00 0.00 0.00 82 1016.0
20260902151539 20 288 0.0 0.0 0.00 0.00 0.00 88 1016.0
20260902150035 19 289 0.0 0.0 0.00 0.00 0.00 89 1015.9
20260902144536 18 288 0.0 0.0 0.00 0.00 0.00 94 1015.9
20260902143030 17 289 0.0 0.0 0.00 0.00 0.00 97 1015.8
20260902141529 16 288 0.0 0.0 0.00 0.00 0.00 95 1015.6
20260902140028 15 288 0.0 0.0 0.00 0.00 0.00 94 1015.5
20260902134536 15 288 0.0 0.0 0.00 0.00 0.00 94 1015.4
20260902133028 15 288 0.0 0.0 0.00 0.00 0.00 94 1015.3
20260902131526 15 288 0.0 0.0 0.00 0.00 0.00 94 1015.2
20260902130025 16 288 0.0 0.0 0.00 0.00 0.00 94 1015.1
20260902124525 16 288 0.0 0.0 0.00 0.00 0.00 94 1015.1
20260902123025 16 289 0.0 0.0 0.00 0.00 0.00 94 1015.2
20260902121522 16 288 0.0 0.0 0.00 0.00 0.00 93 1015.1
20260902120022 16 288 0.0 0.0 0.00 0.00 0.00 94 1015.1
20260902114527 16 288 0.0 0.0 0.00 0.00 0.00 94 1015.3
20260902113032 16 288 0.0 0.0 0.00 0.00 0.00 93 1015.2
20260902111522 16 288 0.0 0.0 0.00 0.00 0.00 94 1015.3
20260902110018 16 288 0.0 0.0 0.00 0.00 0.00 93 1015.3
20260902104517 16 288 0.0 0.0 0.00 0.00 0.00 93 1015.3
20260902103026 16 288 0.0 0.0 0.00 0.00 0.00 92 1015.4
20260902101519 16 288 0.0 0.0 0.00 0.00 0.00 92 1015.5
20260902100017 16 288 0.0 0.0 0.00 0.00 0.00 92 1015.5
20260902094515 16 288 0.0 0.0 0.00 0.00 0.00 91 1015.5
20260902093012 16 288 0.0 0.0 0.00 0.00 0.00 91 1015.5
20260902091510 16 288 0.0 0.0 0.00 0.00 0.00 92 1015.6
20260902090009 17 289 0.0 0.0 0.00 0.00 0.00 91 1015.6
20260902084512 17 288 0.0 0.0 0.00 0.00 0.00 91 1015.6
20260902083008 17 288 0.0 0.0 0.00 0.00 0.00 91 1015.7
20260902081507 17 288 0.0 0.0 0.00 0.00 0.00 90 1015.8
20260902080005 17 288 0.0 0.0 0.00 0.00 0.00 90 1015.7
20260902074503 17 289 0.0 0.0 0.00 0.00 0.00 90 1015.6
20260902073002 17 288 0.0 0.0 0.00 0.00 0.00 89 1015.5
20260902071606 17 288 0.0 0.0 0.00 0.00 0.00 90 1015.4
20260902070057 17 288 0.0 0.0 0.00 0.00 0.00 89 1015.2
20260902064604 17 288 0.0 0.0 0.00 0.00 0.00 88 1015.2
20260902063054 17 288 0.0 0.0 0.00 0.00 0.00 87 1015.2
20260902061604 18 288 0.0 0.0 0.00 0.00 0.00 86 1015.2
20260902060054 18 289 0.0 0.0 0.00 0.00 0.00 85 1015.1
20260902054552 18 288 0.0 0.0 0.00 0.00 0.00 84 1015.0
20260902053049 19 288 0.0 0.0 0.00 0.00 0.00 84 1015.0
20260902051547 19 288 0.0 0.0 0.00 0.00 0.00 84 1015.0
20260902050057 20 289 0.0 0.0 0.00 0.00 0.00 83 1015.0
20260902044547 20 288 0.0 0.0 0.00 0.00 0.00 82 1014.9
20260902043047 20 288 0.0 0.0 0.00 0.00 0.00 82 1014.6
20260902041545 20 288 1.6 11.3 0.00 0.00 0.00 82 1014.4